Tracking 19827 objects as of 21-Aug-2019
HD Live streaming from Space Station
objects crossing your sky now

FENGYUN 1C DEB

Track FENGYUN 1C DEB now!
10-day predictions


NORAD ID: 30545
Int'l Code: 1999-025AKK
Perigee: 833.7 km
Apogee: 1,556.0 km
Inclination: 99.0 °
Period: 109.2 minutes
Semi major axis: 7565 km
RCS: 0.011 m2 (small)
Launch date: May 10, 1999
Source: People's Republic of China (PRC)
Launch site: Taiyaun Space Center, China (TSC)

Note: This is SATELLITE DEBRIS
aabbcc
Your satellite tracking list
Your tracking list is empty




NASA's NSSDC Master Catalog

Two Line Element Set (TLE):
1 30545U 99025AKK 19228.94432517 +.00000086 +00000-0 +16948-3 0  9994
2 30545 099.0312 003.5221 0477301 190.6559 300.8630 13.19213171604620
Source of the keplerian elements: AFSPC